Showing default

IRIDIUM 124, 42810

Orbit data source: Space-Track

IRIDIUM 124, 42810 is a payload satellite owned by Iridium (US) in LEO that was launched on Sun, 25 Jun 2017 UTC via an FALCON 9 launch vehicle from the Air Force Western Test Range (AFWTR). Payload-class satellites include a variety of spacecraft equipped with specific instruments for various scientific and technological missions. These include communications satellites like Starlink; space stations such as the ISS; scientific satellites like the Hubble; Earth observation satellites from companies like Planet Labs, Umbra, and HawkEye 360; GPS; miniature CubeSats for education and research; and military/defense satellites.

Loading next visibility...
Identifier
42810, 2017-039H
Orbit
LEO
Country
Flag of USUS
Related business
Manufacturer
OATK SSG Gilbert
Mission
Operational Commercial Communications
Bus & Motor
ELITEBUS, Unknown motor
Mass
860 kg wet, 700 kg dry
Launch date (UTC)
2017-06-25 (9 years ago)
Launch vehicle
FALCON 9
Launch site
Air Force Western Test Range (AFWTR)
Object type
Payload
Rocket body
Debris
Shape & HBR
Trap Box + 2 Pan, 4.8 m
Radar Cross Section
10.154 m², Large (>1 m²)

Expand to show TLE details & history
Last TLE update: 8 hours ago

TLE from 8 hours ago
0 IRIDIUM 124
1 42810U 17039H   26037.98773701  .00000617  00000-0  17730-3 0  9990
2 42810  86.4536 344.7948 0002283  80.9042 279.2417 14.43281143456330
Epoch: 2026-02-06T23:42Z
TLE epoch observation values (Epoch: 2026-02-06T23:42:20.477Z)
Latitude
-0.00005°
Longitude
-147.90825°
Altitude
750.482 km
Speed
7.479 km/s
True Right ascension
22h 59m 10s
True Declination
0° 00' 00"
Sunlit
Object was in daylight at epoch
Visualization orbit readout
Latitude
Unknown
Longitude
Unknown
Altitude
Unknown
Speed
Unknown
Apparent Right ascension
Unknown
Apparent Declination
Unknown
Sunlit
N/A
Visualization observer readout
Local Sidereal Time
09:59:11
Azimuth
Unknown
Elevation
Unknown
Doppler factor
Unknown
Orbital elements
Apogee altitude
746.255 km
Perigee altitude
743.003 km
Semi-major axis
7,122.766 km
Eccentricity
0.00023
Inclination
86.4536°
RAAN
344.7948°
Arg. of periapsis
80.9042°
True anomaly
279.21588°
Mean anomaly
279.2417°
Eccentric anomaly
279.22879°
Mean motion
3.61052 °/min
Orbital period
99.71 mins
BSTAR
0.0001773
Loading maneuver chart data...
Computing Atmospheric mass density...
Loading historical data...
Loading historical data...
Loading historical data...
Loading historical data...
Loading historical data...
Loading historical data...
Loading historical data...

Documentation

Showing up to 5 results
|